Wind_Speed
12 12 12 13 13 13 13 13 13 13 13 13 13 14 14 14 14 14 15 14 15 15 16 17 17 17 17 18 18 19 20 20 20 21 22 22 23 24 24 25 25 26 26
12 12 13 13 14 14 14 13 13 13 13 14 14 15 15 15 14 13 13 13 15 16 16 16 17 17 18 19 18 19 19 20 20 21 22 22 22 23 24 24 24 25 25
13 13 13 14 14 15 15 14 14 14 14 14 15 15 14 14 14 13 13 13 14 15 15 16 16 17 17 18 18 18 19 19 20 21 21 21 22 22 23 23 23 24 25
13 14 14 15 15 15 15 15 14 14 14 15 15 14 13 14 14 14 14 14 14 14 15 16 17 17 17 18 18 19 19 20 20 21 21 21 21 21 22 23 24 24 25
14 14 14 15 15 15 15 15 15 14 14 14 13 13 13 14 15 15 16 16 15 15 15 16 16 17 17 17 18 19 19 20 20 20 20 21 21 21 22 23 24 25 25
15 15 15 15 15 15 15 15 15 15 14 14 14 14 14 14 15 15 16 16 16 16 16 16 16 16 16 17 17 18 19 20 20 20 21 21 21 21 21 21 23 23 24
16 15 14 14 15 15 15 14 14 14 14 13 13 14 15 15 15 15 15 16 16 17 17 16 16 16 17 18 18 19 19 20 21 21 22 21 21 21 21 21 22 23 24
16 15 15 15 14 14 14 14 14 14 14 14 14 15 15 16 16 16 16 16 16 16 16 16 16 17 18 18 19 19 20 20 21 21 22 21 21 21 21 22 22 23 23
16 16 16 16 15 15 15 15 14 14 14 14 15 15 16 16 16 16 16 16 16 16 17 16 17 17 18 18 18 19 20 21 21 21 22 21 21 22 22 22 22 22 22
17 17 16 16 16 15 15 15 15 15 15 15 16 16 17 17 17 18 17 17 17 17 17 17 17 18 18 18 19 19 20 21 21 21 21 21 21 21 22 22 22 23 23
17 17 16 16 16 16 16 16 16 16 16 16 17 18 18 18 18 18 19 19 19 18 18 18 18 18 18 19 19 20 21 21 21 20 20 20 21 22 22 22 22 23 22
18 17 17 17 16 16 17 17 17 17 17 17 18 19 18 18 18 18 19 19 18 18 18 18 19 19 19 19 20 20 21 21 20 20 20 21 21 22 22 22 23 22 22
19 18 17 17 17 18 18 18 19 19 19 19 20 19 19 18 18 18 18 18 17 17 17 18 18 19 20 20 20 21 22 21 20 20 21 21 22 22 22 22 22 22 22
19 18 18 18 18 18 18 19 20 20 19 19 19 19 18 18 18 17 16 16 15 15 16 18 18 18 19 20 21 21 21 20 20 21 21 21 21 21 21 21 21 21 22
19 18 19 19 19 18 19 19 20 20 20 19 19 18 18 16 16 15 15 15 15 15 16 17 18 18 19 20 20 20 20 20 20 20 21 21 21 21 21 21 22 22 22
19 19 20 20 20 20 20 20 20 20 19 19 19 18 17 17 16 15 15 16 16 16 16 17 17 17 18 19 18 18 19 19 19 20 20 21 21 21 21 21 21 22 22
20 20 20 20 21 21 21 21 20 20 19 19 18 17 16 16 15 15 15 15 16 16 16 16 17 18 18 19 18 18 19 19 19 19 20 20 20 20 20 21 21 21 21
21 20 20 20 21 21 21 22 21 20 19 18 17 16 16 15 14 14 14 14 15 15 15 16 16 17 18 18 18 19 19 19 19 19 20 20 20 20 21 21 21 21 21
21 22 21 21 21 21 21 22 21 20 19 18 17 16 16 15 14 14 14 13 14 14 15 16 16 17 17 17 18 18 18 19 20 20 20 20 21 21 21 21 21 21 21
22 22 22 22 22 21 21 20 20 19 18 17 17 17 16 15 15 14 14 15 15 15 16 16 16 17 17 17 18 18 19 19 20 21 21 21 21 21 22 21 21 22 22
22 23 23 22 21 21 21 20 19 18 18 17 17 17 16 16 15 15 15 16 16 16 16 17 17 17 18 19 19 20 20 20 21 22 22 22 22 22 22 22 22 22 22
23 23 22 21 21 20 20 19 18 17 17 16 17 16 16 16 16 16 16 17 17 17 17 18 18 18 19 20 20 20 21 22 22 23 23 23 23 23 22 22 22 22 21
23 22 21 21 21 20 19 19 19 18 17 17 17 17 17 16 17 17 17 17 17 17 18 18 19 20 20 20 21 21 22 23 23 24 23 23 23 23 23 22 22 21 21
22 21 21 21 20 20 20 20 19 19 18 18 17 17 17 17 17 17 17 17 17 17 17 18 19 20 20 21 22 22 23 24 24 24 24 23 23 23 22 21 21 20 20
22 21 21 21 20 20 19 19 19 18 18 18 17 17 17 18 18 17 17 17 18 18 18 19 20 20 21 22 22 23 23 24 24 24 23 23 22 21 20 20 19 19 19
21 21 21 21 20 20 19 19 19 19 19 18 18 18 18 18 18 17 17 18 18 19 19 19 20 21 21 22 22 23 23 23 22 22 21 20 20 19 19 18 18 17 17
Wind_Direction
304 306 303 303 303 301 303 300 299 297 295 295 298 300 298 296 295 294 289 282 280 279 280 278 278 280 280 281 280 280 279 280 279 279 278 276 274 272 269 267 266 266 264
304 307 305 305 305 301 301 301 300 297 295 294 297 298 298 298 297 295 291 288 285 282 280 278 278 281 283 283 283 283 283 282 280 280 280 277 276 273 270 268 268 267 266
306 307 307 306 304 301 299 297 297 297 296 296 299 299 300 299 297 296 297 294 291 285 282 281 281 281 285 285 285 285 284 282 282 284 283 280 278 275 272 269 269 269 269
309 308 307 305 302 299 299 298 297 297 295 296 299 301 303 302 300 299 300 299 296 291 287 284 283 283 284 286 287 287 286 285 286 286 284 282 280 277 274 271 270 270 271
307 307 306 305 303 301 299 298 296 296 297 298 300 300 301 301 300 299 299 298 296 293 292 289 287 286 285 286 287 287 286 286 287 287 284 282 281 280 278 274 273 274 274
309 306 304 303 303 303 298 296 294 293 294 294 294 294 298 300 300 298 296 296 295 293 292 290 288 287 286 287 288 289 287 287 287 288 286 285 284 282 280 278 277 277 275
309 307 303 303 302 300 298 298 294 292 292 292 294 296 298 298 298 298 295 294 295 296 296 292 290 289 289 289 289 291 292 289 288 288 288 288 286 284 282 281 280 279 278
304 304 304 304 305 302 301 301 296 291 292 293 295 295 297 297 297 297 295 293 295 297 296 295 294 293 292 291 291 293 294 294 292 290 290 290 288 286 285 283 282 282 281
302 301 301 301 303 302 302 300 297 293 292 293 294 294 296 296 297 296 295 294 294 296 297 295 295 295 294 294 295 296 295 295 294 292 289 288 288 288 286 284 283 283 282
300 301 298 297 300 299 299 299 297 294 294 294 294 294 294 295 295 296 295 294 293 295 296 298 300 301 301 299 299 298 297 296 296 293 292 289 289 288 286 285 286 287 286
298 299 296 296 297 298 297 297 295 292 292 293 294 295 294 293 294 294 293 292 291 292 295 297 299 302 303 303 303 302 301 300 299 297 296 294 294 293 290 289 289 289 288
295 294 294 296 297 297 296 295 294 292 291 293 294 295 295 294 296 295 294 293 291 291 292 295 297 300 301 302 303 304 304 304 301 300 299 298 297 296 295 294 292 291 290
292 291 292 294 296 296 296 295 295 294 293 292 293 294 295 294 297 297 296 294 291 291 292 294 297 300 301 301 302 302 301 302 301 299 299 298 298 298 297 294 292 291 291
289 289 291 294 295 295 295 295 295 295 293 294 293 292 294 295 294 294 294 293 292 292 293 295 297 300 301 303 304 304 302 301 301 300 301 301 300 300 298 295 292 292 291
289 290 292 293 292 293 294 295 296 295 294 294 293 293 294 295 298 298 295 294 295 296 297 301 301 303 305 307 309 309 308 306 304 304 304 304 301 298 297 295 293 293 292
288 290 292 293 291 292 293 295 296 295 295 296 294 293 293 291 292 292 294 295 296 298 298 301 304 306 307 309 309 310 310 309 308 307 306 304 302 299 297 295 295 294 294
286 288 288 289 289 290 291 293 294 294 293 294 292 294 295 293 292 292 294 294 296 297 299 304 306 307 308 308 308 311 311 310 310 309 307 305 304 303 301 299 299 298 297
286 286 287 288 289 289 291 290 290 292 293 292 291 292 294 293 292 294 296 298 300 302 301 304 306 308 312 313 314 315 314 314 314 314 313 311 310 308 306 303 302 301 300
285 285 286 287 289 290 290 289 287 288 289 289 290 289 293 291 290 292 293 295 298 299 300 304 306 308 311 314 315 315 313 313 314 316 316 314 312 310 307 305 304 303 302
282 283 284 285 287 288 289 289 287 285 284 284 286 286 288 286 286 288 289 292 295 297 299 303 306 308 311 314 315 315 315 314 315 315 315 314 311 310 308 306 305 303 302
279 280 281 281 282 285 286 287 285 283 282 280 282 284 284 283 283 286 288 291 293 295 298 302 305 308 310 313 315 315 316 315 314 313 314 314 312 311 310 308 306 303 303
277 278 278 278 280 282 283 284 282 281 280 279 280 280 282 283 282 284 286 288 290 292 294 297 301 306 309 311 312 314 316 318 317 315 314 315 314 312 311 309 308 307 305
274 275 275 277 279 279 281 282 282 281 280 280 279 280 280 281 281 282 285 287 289 291 292 294 299 304 306 308 311 313 315 317 318 318 317 317 317 316 314 311 310 310 308
270 272 273 274 276 277 277 277 278 277 277 280 279 279 280 281 282 283 285 288 291 293 293 296 300 304 305 306 308 311 313 314 316 318 318 318 317 317 316 314 312 312 312
269 269 270 272 275 277 276 275 274 273 276 279 279 280 280 280 282 282 284 288 290 291 294 298 301 304 305 307 309 311 312 313 314 315 316 318 319 319 318 318 316 316 315
272 270 269 272 275 276 277 277 277 279 280 281 278 279 279 279 279 281 284 287 289 292 295 299 301 304 307 309 311 312 313 314 315 316 317 318 321 323 322 321 320 319 318
Height
5783 5781 5779 5778 5776 5774 5772 5770 5769 5768 5766 5765 5763 5762 5761 5759 5757 5756 5754 5753 5752 5752 5751 5751 5750 5749 5748 5747 5746 5745 5744 5743 5742 5741 5740 5739 5738 5737 5736 5736 5735 5735 5735
5780 5778 5776 5774 5772 5770 5769 5767 5765 5764 5762 5761 5759 5758 5756 5755 5753 5751 5750 5749 5748 5747 5746 5745 5745 5744 5743 5742 5741 5740 5738 5737 5736 5734 5733 5732 5730 5729 5728 5728 5727 5727 5727
5776 5775 5773 5771 5769 5767 5765 5763 5761 5760 5758 5757 5755 5754 5752 5751 5749 5747 5746 5745 5743 5742 5741 5740 5740 5739 5738 5736 5735 5734 5732 5731 5729 5728 5726 5724 5723 5722 5721 5720 5720 5719 5719
5773 5771 5770 5767 5765 5763 5761 5759 5757 5756 5754 5753 5752 5750 5748 5747 5745 5743 5742 5740 5739 5737 5736 5735 5734 5733 5732 5731 5729 5728 5726 5724 5723 5721 5719 5718 5716 5715 5714 5713 5712 5711 5711
5770 5768 5766 5764 5761 5759 5757 5755 5753 5752 5750 5749 5747 5746 5744 5743 5741 5739 5738 5736 5734 5733 5732 5730 5729 5727 5726 5725 5723 5721 5720 5718 5716 5714 5713 5711 5709 5707 5706 5705 5704 5704 5703
5766 5764 5761 5759 5757 5755 5753 5751 5749 5748 5746 5745 5744 5742 5741 5739 5737 5735 5733 5732 5730 5729 5727 5725 5724 5722 5720 5719 5717 5716 5714 5712 5710 5708 5706 5704 5702 5700 5699 5697 5697 5696 5695
5761 5759 5757 5755 5753 5751 5749 5746 5744 5743 5742 5741 5740 5738 5737 5735 5733 5731 5729 5727 5726 5724 5722 5720 5719 5717 5715 5714 5712 5710 5707 5705 5703 5701 5699 5697 5695 5693 5692 5690 5689 5688 5687
5757 5755 5753 5751 5749 5747 5745 5743 5741 5740 5739 5737 5736 5734 5733 5731 5729 5727 5725 5723 5721 5719 5717 5715 5713 5712 5710 5708 5706 5703 5701 5699 5696 5694 5693 5690 5688 5686 5684 5683 5681 5680 5679
5753 5751 5749 5747 5746 5743 5741 5740 5738 5736 5735 5734 5732 5731 5729 5727 5724 5722 5720 5719 5717 5715 5712 5710 5708 5706 5704 5702 5700 5697 5695 5692 5689 5687 5685 5683 5681 5679 5677 5675 5674 5672 5671
5749 5747 5745 5743 5742 5740 5738 5736 5734 5733 5731 5730 5728 5726 5724 5722 5720 5718 5716 5714 5712 5710 5707 5705 5703 5701 5698 5696 5694 5691 5689 5686 5683 5681 5678 5676 5674 5672 5670 5668 5666 5664 5663
5744 5742 5740 5739 5737 5736 5734 5732 5730 5728 5727 5725 5724 5721 5719 5717 5714 5712 5710 5708 5706 5704 5702 5700 5698 5695 5693 5690 5688 5685 5682 5680 5677 5674 5672 5670 5667 5665 5662 5660 5658 5656 5655
5739 5737 5735 5734 5732 5731 5729 5728 5726 5724 5722 5721 5718 5716 5714 5711 5709 5707 5705 5703 5700 5699 5697 5695 5692 5690 5687 5685 5682 5679 5676 5673 5671 5668 5666 5663 5660 5658 5655 5652 5650 5649 5647
5733 5732 5730 5729 5727 5726 5724 5723 5721 5719 5717 5715 5713 5711 5709 5706 5704 5701 5699 5697 5695 5693 5692 5690 5687 5685 5682 5679 5676 5673 5670 5667 5664 5662 5659 5657 5654 5651 5648 5646 5644 5641 5639
5727 5726 5725 5724 5722 5720 5719 5717 5716 5714 5712 5710 5707 5705 5703 5701 5698 5696 5694 5692 5690 5689 5687 5685 5682 5680 5677 5674 5671 5667 5664 5661 5658 5655 5653 5650 5647 5644 5642 5639 5637 5635 5633
5722 5721 5720 5718 5716 5715 5714 5712 5710 5708 5706 5704 5702 5699 5697 5695 5693 5691 5689 5688 5686 5684 5682 5680 5677 5675 5672 5669 5665 5662 5658 5655 5652 5649 5646 5643 5641 5638 5635 5632 5630 5628 5625
5717 5716 5714 5712 5711 5709 5708 5706 5704 5702 5700 5698 5696 5694 5692 5690 5688 5687 5685 5683 5681 5679 5677 5675 5673 5670 5667 5664 5660 5657 5653 5650 5647 5643 5640 5637 5634 5631 5628 5626 5623 5621 5618
5710 5709 5708 5706 5705 5703 5702 5700 5698 5697 5695 5693 5691 5689 5687 5686 5684 5682 5680 5679 5677 5675 5673 5670 5668 5665 5662 5659 5655 5652 5648 5645 5641 5638 5635 5631 5628 5625 5622 5619 5616 5613 5611
5704 5703 5701 5700 5699 5697 5696 5694 5692 5690 5689 5687 5686 5684 5682 5681 5679 5677 5676 5674 5672 5670 5668 5666 5664 5661 5658 5654 5651 5647 5643 5640 5636 5633 5629 5626 5622 5619 5616 5613 5610 5607 5604
5697 5696 5695 5693 5692 5691 5689 5688 5686 5684 5683 5682 5680 5679 5677 5676 5674 5673 5671 5670 5668 5666 5664 5662 5659 5656 5653 5650 5646 5643 5639 5635 5632 5628 5624 5620 5617 5613 5610 5607 5604 5600 5598
5690 5689 5687 5686 5685 5684 5682 5681 5679 5678 5677 5676 5675 5674 5672 5671 5669 5668 5667 5665 5663 5661 5659 5657 5655 5652 5649 5645 5642 5638 5635 5631 5627 5623 5619 5615 5612 5608 5604 5601 5597 5594 5591
5682 5681 5680 5679 5678 5677 5675 5674 5673 5672 5671 5670 5670 5668 5667 5666 5664 5663 5662 5660 5658 5656 5654 5652 5650 5647 5644 5640 5637 5634 5630 5626 5622 5618 5614 5610 5606 5602 5598 5594 5591 5588 5585
5674 5674 5673 5672 5671 5670 5669 5668 5667 5666 5665 5665 5664 5662 5661 5660 5659 5658 5657 5655 5653 5651 5649 5647 5645 5642 5638 5635 5632 5628 5625 5621 5616 5612 5608 5604 5600 5596 5592 5588 5584 5581 5578
5666 5666 5665 5665 5664 5663 5662 5661 5660 5660 5659 5658 5658 5657 5656 5654 5653 5652 5651 5649 5648 5646 5644 5642 5639 5636 5633 5630 5626 5623 5619 5615 5611 5607 5602 5598 5593 5589 5585 5581 5578 5574 5571
5658 5658 5658 5658 5657 5656 5655 5654 5654 5653 5653 5652 5651 5650 5649 5648 5647 5646 5645 5643 5642 5640 5638 5636 5633 5630 5627 5624 5621 5617 5613 5609 5605 5601 5596 5592 5587 5583 5579 5575 5571 5568 5565
5651 5651 5651 5651 5650 5649 5649 5648 5648 5647 5647 5646 5645 5644 5643 5642 5641 5640 5639 5638 5636 5634 5633 5630 5628 5625 5622 5618 5615 5611 5607 5603 5599 5595 5590 5586 5582 5577 5573 5570 5566 5563 5560
5644 5644 5644 5644 5643 5643 5642 5642 5641 5641 5640 5639 5638 5638 5637 5636 5635 5634 5633 5632 5630 5629 5627 5624 5622 5619 5615 5612 5608 5605 5601 5597 5593 5589 5585 5581 5577 5573 5569 5566 5562 5559 5555